This demonstration page uses our WeatherBlox Daily Observations layout. Learn more.

41.55636, -103.73856

Hourly Observations for January 20, 2020

Temp ( °F °C ) Dew Point ( °F °C ) Humidity (%) Winds ( mph kmh ) Pressure ( in mb ) Visibility ( mi km ) Precip ( " mm )
12:58 am 00:58 Clear 31 -0.6 15 -9.7 51 51 W 8 13 30.57 1035 10 16.0934 0 0
1:58 am 01:58 Clear 28 -2.5 15 -9.2 60 60 W 6 9 30.58 1035 10 16.0934 0 0
2:58 am 02:58 Clear 27 -3 16 -8.8 65 65 WSW 7 11 30.58 1035 10 16.0934 0 0
3:58 am 03:58 Clear 27 -3 17 -8.5 66 66 W 10 17 30.56 1035 10 16.0934 0 0
4:58 am 04:58 Clear 25 -3.8 16 -8.9 68 68 W 8 13 30.54 1034 10 16.0934 0 0
5:58 am 05:58 Clear 23 -5.2 15 -9.4 73 73 WSW 8 13 30.53 1034 10 16.0934 0 0
6:58 am 06:58 Clear 26 -3.3 16 -9.1 65 65 W 6 9 30.49 1033 10 16.0934 0 0
7:58 am 07:58 Clear 22 -5.6 15 -9.5 74 74 SW 7 11 30.48 1032 10 16.0934 0 0
8:58 am 08:58 Clear 24 -4.5 15 -9.6 68 68 WSW 3 6 30.46 1032 10 16.0934 0 0
9:58 am 09:58 Clear 22 -5.7 14 -10 72 72 WSW 6 9 30.46 1032 10 16.0934 0 0
10:58 am 10:58 Clear 22 -5.4 12 -10.9 66 66 Calm 30.45 1031 10 16.0934 0 0
11:58 am 11:58 Clear 22 -5.7 13 -10.5 69 69 NNW 3 6 30.49 1033 10 16.0934 0 0
12:58 pm 12:58 Clear 17 -8.2 10 -12 74 74 WSW 3 6 30.53 1034 10 16.0934 0 0
1:58 pm 13:58 Clear 20 -6.6 10 -12.2 65 65 SW 9 15 30.55 1034 10 16.0934 0 0
2:58 pm 14:58 Sunny 20 -6.9 11 -11.4 71 71 SW 8 13 30.56 1035 10 16.0934 0 0
3:58 pm 15:58 Sunny 25 -3.9 14 -9.8 64 64 Calm 30.53 1034 10 16.0934 0 0
4:58 pm 16:58 Sunny 35 1.7 14 -10.2 41 41 Calm 30.5 1033 10 16.0934 0 0
5:58 pm 17:58 Sunny 40 4.4 11 -11.7 30 30 Calm 30.49 1032 10 16.0934 0 0
6:58 pm 18:58 Sunny 44 6.5 11 -11.5 27 27 Calm 30.41 1030 10 16.0934 0 0
7:58 pm 19:58 Sunny 47 8.5 11 -11.8 23 23 SSE 7 11 30.38 1029 10 16.0934 0 0
8:58 pm 20:58 Sunny 48 8.9 10 -12 22 22 S 3 6 30.36 1028 10 16.0934 0 0
9:58 pm 21:58 Sunny 48 9.1 11 -11.8 22 22 SE 9 15 30.35 1028 10 16.0934 0 0
10:58 pm 22:58 Sunny 44 6.9 11 -11.4 26 26 SE 9 15 30.35 1028 10 16.0934 0 0
11:58 pm 23:58 Mostly Clear 40 4.4 14 -10.2 34 34 S 14 22 30.36 1028 10 16.0934 0 0

Powered by AerisWeather